Flag for Namibia Weather past 2 weeks in Swakopmund, Namibia

Now
66 °F

Mild.


Feels Like: 66 °F
Forecast: 61 / 73 °F
Wind: 9 mph from West

Location: Walvis Bay

Current Time: Dec 19, 2014 at 8:19:42 PM

Latest Report: Dec 19, 2014 at 7:00 PM


Visibility: N/A

Pressure: 29.98 "Hg

Humidity: 60%

Dew point: 52 °F

Location of SwakopmundLocation

Historic Weather in Swakopmund — Graph

°F

Swakopmund temperature yesterday

Maximum temperature yesterday: 72 °F (at 2:00 PM)
Minimum temperature yesterday: 55 °F (at 5:00 AM)
Average temperature yesterday: 64 °F

Past Weeks' High & Low Weather Summary

 TemperatureHumidityPressure
High79 °F (Dec 7, 3:00 PM)94% (Dec 5, 4:00 AM)30.07 "Hg (Dec 5, 4:00 AM)
Low54 °F (Dec 5, 4:00 AM)39% (Dec 5, 3:00 PM)29.83 "Hg (Dec 5, 5:00 PM)
Average61 °F73%29.96 "Hg
* Reported Dec 4 9:00 PM — Dec 19 7:00 PM, Swakopmund, Weather by CustomWeather, © 2014

Note: Actual official high and low records may vary slightly from our data, if they occured in-between our weather recording intervals... More about our weather records

Advertising

Swakopmund weather history for previous 24 hours

 ConditionsComfort  
Time TempWeatherWind HumidityBarometerVisibility
7:00 PM
Dec 19
66 °FMild.9 mph60%29.98 "HgN/A
6:00 PM68 °FMild.9 mph56%29.98 "HgN/A
4:00 PM70 °FScattered clouds.12 mph53%29.98 "HgN/A
3:00 PM72 °FScattered clouds.13 mph50%29.98 "HgN/A
2:00 PM72 °FPassing clouds.13 mph53%30.01 "HgN/A
1:00 PM72 °FSunny.9 mph53%30.01 "Hg10 mi
12:00 PM70 °FMild.5 mph57%30.04 "HgN/A
11:00 AM66 °FPartly sunny.2 mph68%30.04 "HgN/A
10:00 AM63 °FMild.1 mph73%30.07 "HgN/A
9:00 AM61 °FOvercast.2 mph77%30.07 "HgN/A
8:00 AM59 °FOvercast.5 mph77%30.04 "HgN/A
6:00 AM55 °FOvercast.2 mph82%30.01 "HgN/A
5:00 AM54 °FClear.5 mph77%30.01 "Hg10 mi
4:00 AM54 °FCool.2 mph77%29.98 "HgN/A
3:00 AM55 °FCool.2 mph77%29.98 "HgN/A
2:00 AM55 °FCool.2 mph77%30.01 "HgN/A
1:00 AM57 °FCool.1 mph77%30.01 "HgN/A
12:00 AM59 °FCool.2 mph72%30.04 "HgN/A
11:00 PM
Dec 18
61 °FCool.1 mph72%30.04 "HgN/A
10:00 PM61 °FCool.3 mph72%30.04 "HgN/A
9:00 PM63 °FMild.6 mph68%30.04 "HgN/A
8:00 PM64 °FMild.7 mph64%30.01 "HgN/A
Weather by CustomWeather, © 2014

See weather overviewHow to use our weather pages